Regional Weather Roundup
Issued by NWS

Home | Current Version | Previous Version | Text Only | Print | Product List | Glossary On
Versions: 1 2 3 4 5 6 7 8 9 10 11 12 13 14 15 16 17 18 19 20 21 22 23 24 25 26 27 28 29 30 31 32 33 34 35 36 37 38 39 40 41 42 43 44 45 46 47 48 49 50
000
ASUS43 KIND 051709
RWRIN

WEATHER ROUNDUP FOR INDIANA
NATIONAL WEATHER SERVICE INDIANAPOLIS IN
100 PM EDT TUE MAY 05 2015

NOTE: "FAIR" INDICATES FEW OR NO CLOUDS BELOW 12,000 FEET WITH NO
SIGNIFICANT WEATHER AND/OR OBSTRUCTIONS TO VISIBILITY.

* - STATION DOES NOT REPORT WEATHER SUCH AS PRECIPITATION OR FOG.

+ - STATION NOT QUALITY CONTROLLED BY THE NATIONAL WEATHER SERVICE.
    USE DATA WITH CAUTION...ESPECIALLY DEWPOINT AND RELATIVE
    HUMIDITY OBSERVATIONS.

INZ001>003-010>013-019-020-051800-
NORTHWEST INDIANA

CITY           SKY/WX    TMP DP  RH WIND       PRES   REMARKS
GARY /AIRPORT/ LGT RAIN  55 N/A N/A CALM      30.23S
KNOX *+        PTSUNNY   70  50  49 S6        30.20S
LA PORTE +     LGT RAIN  67  67  97 E3        30.22S
MICHIGAN CITY+ LGT RAIN  63  63 100 CALM      30.22F
MONTICELLO +   MOSUNNY   75  64  68 S6        30.19F
VALPARAISO     LGT RAIN  68  62  81 CALM      30.23R

$$

LMZ046-743>745-051800-
SOUTHERN LAKE MICHIGAN

STATION/POSITION TIME  TEMP    WIND        PRES    WAVE
                       AIR SEA DIR/SP/G            HT
                 (UTC) (F)     (DEG/KT/KT) (MB)    (FT)
BURNS HARBOR     1700   59     180/  4/  6 1023.4S
MICHIGAN CITY    1700   61     140/  5/  6   N/A
5NW MICH CITY    1700   55 49  150/  2/  4   N/A     1

$$

INZ004-005-014>016-021>024-051800-
NORTH CENTRAL INDIANA

CITY           SKY/WX    TMP DP  RH WIND       PRES   REMARKS
ELKHART        CLOUDY    61  59  94 NE7       30.24S FOG
GOSHEN         CLOUDY    69  63  81 SE7       30.23S
LOGANSPORT +   MOSUNNY   73  59  60 S8        30.21F
PERU/GRISSOM   MOSUNNY   75  62  64 S12       30.20F
ROCHESTER +    PTSUNNY   73  64  73 SE5       30.22S
SOUTH BEND     CLOUDY    62  59  90 NW7       30.26R FOG
WARSAW +       PTSUNNY   68  63  83 SE6       30.23S

$$

INZ006>009-017-018-025>027-051800-
NORTHEAST INDIANA

CITY           SKY/WX    TMP DP  RH WIND       PRES   REMARKS
ANGOLA *+      CLOUDY    55  55 100 SE7       30.25S
AUBURN +       LGT RAIN  63  59  88 CALM      30.25F
FORT WAYNE     PTSUNNY   72  63  73 S9        30.23F
HUNTINGTON +   MOSUNNY   73  63  70 S6        30.22F

$$

INZ028-029-035-036-043>045-051>053-051800-
WEST CENTRAL INDIANA

CITY           SKY/WX    TMP DP  RH WIND       PRES   REMARKS
CRAWFORDSVL +  SUNNY     77  48  36 SW12G20   30.21F
GREENCASTLE +  SUNNY     79  52  38 SW7       30.23F
LAFAYETTE      SUNNY     76  59  55 SW9       30.19F
TERRE HAUTE    MOSUNNY   82  54  37 W9        30.21F

$$

INZ030>032-037>040-046>048-054>057-064-065-051800-
CENTRAL INDIANA

CITY           SKY/WX    TMP DP  RH WIND       PRES   REMARKS
CP ATTERBURY + MOSUNNY   79  54  41 SW6       30.24F
COLUMBUS       SUNNY     75  54  46 SW12      30.24
FRANKFORT +    MOSUNNY   77  60  56 S9G16     30.23F
GREENWOOD *+   SUNNY     81  54  39 SW8G17    30.24F
INDIANAPOLIS   MOSUNNY   78  54  43 W12G22    30.22F
-EAGLE CREEK   SUNNY     79  55  43 VRB7      30.22F
KOKOMO *+      MOSUNNY   75  61  60 SW6       30.21F
MARION +       MOSUNNY   74  57  54 SW6       30.23F
MT COMFORT *+  SUNNY     81  34  18 SW15      30.24S
SHELBYVILLE    SUNNY     80  55  42 W17       30.23F
ZIONSVILLE +   SUNNY     78  53  42 W10G16    30.23F

$$

INZ033-034-041-042-049-050-058-059-051800-
EAST CENTRAL INDIANA

CITY           SKY/WX    TMP DP  RH WIND       PRES   REMARKS
MUNCIE         SUNNY     77  60  55 W9        30.23F

$$

INZ060-061-067>069-081>083-085>088-051800-
SOUTHWEST INDIANA

CITY           SKY/WX    TMP DP  RH WIND       PRES   REMARKS
EVANSVILLE     MOSUNNY   84  55  36 SW10      30.25F
HUNTINGBURG *+ MOSUNNY   81  55  41 SW10      30.25F
WASHINGTON +   PTSUNNY   81  50  34 W10       30.23F

$$

INZ062-063-066-070>080-084-089>092-051800-
SOUTH CENTRAL AND SOUTHEAST INDIANA

CITY           SKY/WX    TMP DP  RH WIND       PRES   REMARKS
BLOOMINGTON    MOSUNNY   81  52  36 SW13      30.24F
MADISON *+     MOSUNNY   79  48  34 W8        30.28F
NORTH VERNON + MOSUNNY   77  57  50 W12       30.26F
SEYMOUR +      MOSUNNY   82  57  42 W16       30.24F

$$




USA.gov is the U.S. government's official web portal to all federal, state and local government web resources and services.